Location: Winthrop
(48.4780°N, 120.1850°W)
Time: 17:28:26
(UTC-08:00)

Vanguard 1 Rocket - All Passes

Search period start: 28 November 2023 00:00
Search period end: 08 December 2023 00:00
Orbit: 656 x 4218 km, 34.3° (Epoch: 28 November)

Date Brightness Start Highest point End Pass type
(mag) Time Alt. Az. Time Alt. Az. Time Alt. Az.
28 Nov - 04:48:43 10° S 04:59:48 19° SSE 05:07:38 10° ESE visible
28 Nov - 07:14:20 10° SW 07:26:16 31° S 07:33:21 10° ESE daylight
28 Nov - 09:43:18 10° WSW 09:51:14 27° SSW 09:56:19 10° SE daylight
29 Nov - 03:38:38 10° S 03:47:06 14° SSE 03:53:53 10° ESE visible
29 Nov - 06:00:40 10° SW 06:14:09 29° SSE 06:22:24 10° ESE visible
29 Nov - 08:29:18 10° WSW 08:39:57 33° S 08:46:13 10° SE daylight
29 Nov - 10:58:58 10° WSW 11:04:00 18° SSW 11:07:45 10° SSE daylight
30 Nov - 04:47:36 10° SSW 05:01:37 25° SSE 05:10:49 10° ESE visible
30 Nov - 07:15:02 10° SW 07:28:13 35° S 07:35:45 10° ESE daylight
30 Nov - 09:44:51 10° WSW 09:53:08 27° SSW 09:58:23 10° SE daylight
01 Dec - 03:35:52 10° S 03:48:47 20° SSE 03:58:12 10° ESE visible
01 Dec - 06:00:49 10° SW 06:16:01 34° SSE 06:24:55 10° ESE visible
01 Dec - 08:30:32 10° WSW 08:41:52 34° S 08:48:24 10° SE daylight
01 Dec - 11:01:07 10° WSW 11:05:43 16° SW 11:09:15 10° S daylight
02 Dec - 02:26:58 10° SSE 02:35:47 14° SE 02:43:12 10° ESE visible
02 Dec - 04:47:04 10° SSW 05:03:23 30° SSE 05:13:35 10° ESE visible
02 Dec - 07:15:54 10° WSW 07:30:06 38° S 07:38:02 10° ESE daylight
02 Dec - 09:46:29 10° WSW 09:54:56 26° SSW 10:00:19 10° SSE daylight
03 Dec - 03:34:21 10° SSW 03:50:23 25° SSE 04:01:27 10° ESE visible
03 Dec - 06:01:13 10° SW 06:17:50 38° S 06:27:17 10° ESE visible
03 Dec - 08:31:49 10° WSW 08:43:42 35° SSW 08:50:30 10° SE daylight
03 Dec - 11:03:32 10° WSW 11:07:19 13° SW 11:10:23 10° SSW daylight
04 Dec - 02:23:28 10° S 02:37:14 19° SE 02:47:56 10° ESE visible
04 Dec - 04:46:55 10° SW 05:05:04 36° SSE 05:16:05 10° ESE visible
04 Dec - 07:16:52 10° WSW 07:31:55 40° S 07:40:13 10° ESE daylight
04 Dec - 09:48:10 10° WSW 09:56:37 24° SSW 10:02:05 10° SSE daylight
05 Dec - 01:16:49 10° SSE 01:24:06 12° SE 01:30:39 10° ESE visible
05 Dec - 03:33:30 10° SSW 03:51:56 31° SSE 04:04:14 10° E visible
05 Dec - 06:01:49 10° WSW 06:19:35 42° S 06:29:32 10° ESE visible
05 Dec - 08:33:09 10° WSW 08:45:26 34° SSW 08:52:30 10° SE daylight
05 Dec - 11:06:43 10° WSW 11:08:48 11° SW 11:10:40 10° SSW daylight
06 Dec - 02:21:32 10° S 02:38:35 24° SE 02:51:20 10° E visible
06 Dec - 04:47:05 10° SW 05:06:43 40° SSE 05:18:24 10° ESE visible
06 Dec - 07:17:55 10° WSW 07:33:40 42° S 07:42:19 10° ESE daylight
06 Dec - 09:49:57 10° W 09:58:10 22° SW 10:03:39 10° S daylight
07 Dec - 01:12:02 10° S 01:25:16 17° SE 01:36:29 10° ESE visible
07 Dec - 03:33:08 10° SSW 03:53:24 36° SSE 04:06:42 10° E visible
07 Dec - 06:02:34 10° WSW 06:21:17 45° S 06:31:41 10° ESE visible
07 Dec - 08:34:32 10° W 08:47:04 33° SSW 08:54:22 10° SE daylight
